Lid_Strength_Index
-1 -1 -0 3 10 11 13 12 8 9 9 6 6 7 8 7 9 10 1 0 -0 -0 -1 -1 -2 -1 -2 -2 -1 -2 -2 -2 -2 -2 -2 -2 -2 -1 -1 -2 -1 -2 -2 -2 -2 -2 -2 -2 -2
-0 0 2 5 11 14 14 9 10 8 7 5 6 7 8 9 5 4 3 0 -1 -1 -1 -1 -2 -2 -2 -2 -2 -2 -1 -2 -2 -2 -2 -2 -2 -1 -2 -2 -2 -2 -2 -2 -2 -2 -2 -2 -2
0 1 6 9 11 14 14 9 9 8 6 6 7 5 7 7 4 3 1 -0 -0 -1 -1 -1 -1 -1 -2 -1 -2 -1 -2 -1 -1 -1 -2 -2 -2 -2 -1 -1 -2 -2 -2 -2 -2 -2 -2 -2 -2
2 3 5 10 12 10 10 8 8 8 7 6 6 8 5 2 3 1 0 -0 -0 -0 -1 -1 -1 -1 -2 -2 -2 -1 -1 -1 -2 -1 -2 -2 -2 -1 -1 -2 -2 -2 -2 -2 -2 -2 -2 -2 -2
2 5 10 11 11 9 7 7 7 8 8 7 6 8 7 3 1 0 0 -0 0 -0 -1 -1 -2 -1 -2 -1 -1 -2 -1 -2 -1 -1 -2 -2 -2 -1 -2 -2 -1 -2 -2 -2 -2 -2 -2 -2 -1
6 6 11 13 11 9 7 6 6 7 7 6 7 7 6 2 2 1 0 -0 -0 -0 -1 -1 -1 -1 -2 -2 -1 -1 -1 -1 -1 -1 -2 -2 -2 -1 -1 -2 -2 -2 -2 -2 -2 -2 -1 -1 -1
7 9 11 11 11 10 8 5 7 7 7 7 5 8 5 3 1 0 0 -0 -0 -1 -1 -1 -1 -1 -1 -1 -1 -1 -1 -1 -1 -1 -2 -2 -2 -2 -2 -1 -2 -2 -2 -2 -2 -2 -2 -2 -2
6 7 11 10 11 11 7 6 5 6 7 3 4 8 7 3 1 1 0 0 -0 -0 -1 -1 -1 -1 -1 -1 -1 -1 -1 -1 -1 -1 -2 -2 -2 -2 -1 -2 -2 -2 -2 -2 -2 -2 -2 -2 -2
4 9 11 10 10 9 6 7 5 4 6 5 4 4 3 2 1 1 2 1 1 1 -0 -1 -1 -1 -1 -1 -1 -1 -1 -1 -1 -1 -1 -1 -1 -1 -2 -1 -2 -2 -2 -2 -2 -2 -2 -1 -1
7 9 10 7 7 8 6 6 6 7 7 6 6 3 3 2 2 3 3 3 2 1 1 -0 -1 -1 -1 -1 -1 -1 -1 -1 -1 -2 -2 -1 -1 -2 -1 -2 -2 -2 -2 -2 -2 -2 -1 -1 -2
7 9 7 7 6 5 6 6 5 7 8 6 7 5 4 3 3 3 2 2 2 1 0 -0 -0 -1 -1 -1 -1 -1 -1 -1 -1 -2 -1 -1 -1 -2 -1 -1 -1 -2 -2 -2 -1 -1 -2 -1 -2
9 7 6 6 5 6 7 5 7 6 6 4 4 4 4 4 3 3 3 2 2 1 1 -0 -1 -1 -1 -1 -1 -1 -1 -1 -1 -1 -1 -1 -1 -1 -1 -1 -1 -1 -2 -1 -1 -1 -2 -2 -2
8 7 6 5 5 5 5 6 6 6 4 3 4 4 4 4 3 2 2 1 1 1 1 0 -0 -0 -1 -1 -1 -1 -1 -1 -1 -1 -1 -1 -1 -1 -1 -1 -1 -1 -1 -1 -1 -1 -1 -2 -2
6 6 6 5 6 5 6 6 6 5 4 5 4 4 4 3 3 3 2 2 2 1 1 0 -0 -1 -1 -1 -1 -1 -1 -1 -1 -1 -1 -2 -1 -1 -1 -1 -1 -1 -1 -1 -1 -1 -1 -1 -1
5 8 7 6 6 6 5 8 8 5 4 5 5 4 4 3 3 3 2 2 1 1 0 0 -0 -1 -1 -1 -1 -1 -1 -1 -1 -1 -1 -2 -2 -1 -1 -1 -1 -1 -1 -1 -1 -1 -1 -1 -1
7 7 10 7 6 6 6 10 6 5 5 6 5 5 4 4 3 2 2 1 1 1 1 0 -0 0 -0 -1 -1 -1 -1 -1 -1 -1 -1 -2 -2 -2 -1 -1 -1 -1 -1 -1 -1 -1 -0 -0 -0
8 11 10 9 6 7 7 9 6 5 5 6 6 5 5 4 3 2 2 1 1 1 1 0 -0 -0 -0 -1 -1 -1 -1 -1 -1 -1 -1 -1 -2 -1 -1 -1 -1 -1 -1 -1 -1 -0 -0 0 -0
11 11 10 10 8 7 8 8 7 6 6 6 6 5 5 4 4 2 2 1 1 1 0 0 0 -0 -0 -0 -0 -1 -0 -1 -1 -1 -1 -1 -1 -1 -1 -1 -1 -1 -1 -0 -0 -0 -0 -0 -0
8 10 10 9 8 8 9 8 8 7 6 6 6 5 5 4 3 2 2 1 1 1 1 1 0 -0 0 0 1 1 1 0 -0 -1 -1 -1 -1 -1 -1 -1 -1 -1 -0 -0 -1 -0 0 0 -0
9 10 10 9 8 8 9 9 7 7 7 6 6 6 5 4 4 3 2 2 1 1 1 1 0 0 0 0 0 0 0 0 -0 -1 -1 -1 -1 -1 -1 -1 -0 -1 -0 -0 -0 0 1 0 -0
9 9 9 10 9 9 10 10 9 8 6 6 5 5 4 4 4 3 3 2 2 1 1 1 0 0 -0 -0 -0 0 -0 -0 0 0 -0 -1 -1 -1 -1 -1 -1 -1 -1 0 0 -0 0 2 1
10 7 8 10 10 13 9 14 10 9 9 7 6 5 5 4 4 3 3 2 2 1 1 0 0 0 0 -0 0 0 1 2 1 1 -0 -0 -1 -1 -1 -1 -1 -1 -1 -0 -0 -0 0 0 2
9 7 9 9 10 11 12 13 11 9 10 8 7 6 5 4 4 3 3 2 2 1 1 1 0 0 -0 0 0 1 1 1 0 0 0 -0 -1 -1 -1 -1 -1 -0 -0 -0 -0 -0 0 0 1
7 8 9 9 11 13 11 12 11 11 9 8 6 6 5 4 3 3 2 2 2 1 1 1 1 1 0 0 0 0 1 1 1 1 1 1 0 -0 -1 -1 -1 -1 -0 -1 -1 -1 -0 -0 0
8 9 11 12 14 13 11 13 10 8 7 6 6 5 5 4 4 3 3 3 2 2 1 1 1 1 1 1 0 1 0 0 1 1 1 1 1 0 0 -0 -0 -0 -1 -1 -1 -0 -0 -0 0
8 9 11 14 13 12 11 13 9 7 6 5 5 4 4 4 4 3 3 3 2 2 2 1 1 1 1 1 1 0 0 1 0 0 0 1 1 0 -1 -0 -1 -1 -1 -1 -1 -0 -0 -0 0
9 10 8 10 11 13 11 10 7 6 6 6 5 5 5 4 4 3 3 2 2 2 2 1 1 1 1 1 1 0 0 0 0 0 -0 0 -0 -0 -1 -1 -1 -1 -1 -1 -1 -0 -0 -0 -0
8 8 11 10 14 14 12 12 10 8 6 5 6 6 5 4 4 3 3 3 2 2 1 1 1 1 1 1 1 1 0 0 -0 -0 0 -0 -0 -0 -0 -0 -0 -0 -1 -1 -1 -0 -0 -0 0
9 9 11 10 10 12 12 10 6 7 6 5 5 5 5 4 4 3 3 2 2 2 1 1 1 1 1 1 1 1 0 0 0 0 0 -0 -0 -0 -0 -1 -0 -0 -0 -1 -0 -0 -0 0 0
6 9 9 12 12 11 11 10 5 5 5 5 5 4 4 4 3 3 3 2 2 2 2 2 1 1 1 1 1 1 0 0 1 0 0 -0 -0 -1 -0 -0 -0 -0 -0 -0 -0 0 -0 0 1